Wind_Speed
18 18 17 17 17 19 20 20 21 22 24 24 23 22 21 22 22 22 22 22 23 23 23 23 23 23 24 25 25 24 23 23 24 26 29 32 34 36 36 35 34 32 30 28 26 26 26 26 25 25 24 24 25 25 26 27 27 27 27 27 27 26 26 25 25 25 24 24 23 23 23 24 25 26 27 27 26 25 24 23 23 24 24 24 23 23
18 18 17 16 15 16 17 18 19 20 22 23 23 22 22 22 22 21 21 20 20 20 20 21 22 24 24 26 27 28 27 26 25 25 26 29 32 35 37 39 39 37 35 33 31 30 29 28 28 27 27 26 26 27 27 28 28 28 28 28 27 27 26 26 25 25 24 24 24 24 25 25 26 26 27 27 27 26 25 24 23 23 24 23 23 24
19 19 18 16 15 15 16 17 17 18 19 21 21 22 22 23 23 23 22 22 21 20 19 19 20 22 24 26 28 29 30 30 28 26 25 26 28 31 34 37 39 40 39 38 36 34 33 31 30 29 28 28 28 28 28 28 28 28 28 28 28 27 27 26 25 25 25 25 25 26 27 27 27 27 28 28 28 28 27 25 24 23 23 23 24 24
20 20 20 19 17 17 17 17 17 17 17 19 20 21 22 22 23 23 23 22 22 21 21 21 21 22 23 24 25 27 29 31 30 29 27 26 26 28 30 33 36 38 40 40 39 38 36 34 32 31 29 29 28 28 28 28 28 28 28 28 27 27 27 26 26 26 25 26 27 28 28 28 27 28 29 30 30 30 29 26 25 24 23 24 24 25
20 20 20 19 19 19 19 18 18 17 18 19 20 20 21 22 22 23 23 22 22 23 23 22 22 23 23 23 23 24 27 30 31 30 29 27 27 27 28 30 32 34 37 39 39 39 38 36 34 32 31 30 29 29 28 28 28 27 27 27 27 27 27 27 26 26 26 27 27 28 28 28 27 28 29 31 32 32 30 27 25 24 24 24 25 25
20 20 19 19 20 20 20 20 19 19 20 21 21 21 22 22 22 23 23 23 23 23 23 23 23 23 24 24 23 24 26 29 31 32 30 29 28 27 28 28 30 32 34 36 38 38 38 36 35 33 32 31 30 30 29 28 28 27 27 28 28 28 28 27 27 27 27 27 27 28 27 27 27 28 29 31 32 32 29 27 25 25 25 26 26 26
21 20 19 20 20 21 21 20 20 20 20 21 22 22 22 21 21 22 23 23 23 23 23 23 24 24 24 24 24 25 26 28 30 31 30 29 29 28 28 28 29 30 32 33 35 36 36 35 34 33 32 32 31 30 30 29 28 28 28 28 28 28 28 28 27 27 27 27 27 27 26 25 26 27 28 29 30 29 28 26 25 25 26 27 27 27
21 21 19 19 20 20 20 20 19 19 19 19 20 20 20 20 20 21 22 23 23 23 23 23 23 23 23 24 24 24 24 24 25 27 28 28 28 28 28 28 28 29 30 31 32 33 34 34 34 33 33 32 32 31 31 30 30 29 29 29 29 29 28 28 28 28 28 27 27 26 25 25 25 26 27 27 27 27 26 25 25 25 26 27 28 28
21 21 21 20 20 20 20 20 20 18 18 18 19 19 20 21 21 22 22 22 22 22 21 21 22 22 23 22 22 22 22 23 23 24 25 26 28 29 29 29 29 29 29 29 29 30 31 32 32 32 33 33 32 32 32 31 31 31 30 30 29 29 29 29 29 28 28 27 26 25 25 25 25 26 26 26 26 26 26 26 26 26 27 28 29 29
20 21 21 21 20 19 20 21 21 19 18 19 19 20 21 22 23 23 23 23 23 22 21 21 21 22 22 22 21 21 21 22 23 24 25 27 28 29 29 29 29 29 29 29 29 29 29 30 31 31 32 33 33 33 33 33 33 32 32 31 30 29 29 29 29 29 28 28 27 26 25 26 26 27 27 27 27 27 27 27 27 27 28 29 29 30
19 19 19 20 19 19 19 20 20 20 19 19 21 22 22 23 23 23 23 24 24 23 22 22 22 22 22 21 21 20 20 21 22 23 25 27 28 29 30 30 30 30 30 30 29 29 29 29 29 30 31 32 33 33 33 34 34 33 33 32 31 30 29 29 29 29 29 28 27 27 26 27 27 28 28 28 28 28 28 28 28 29 30 30 30 31
17 18 18 18 19 19 19 20 19 18 17 18 19 21 22 22 22 22 22 23 23 23 23 23 22 22 22 21 21 20 20 20 21 22 23 25 27 29 30 31 31 31 30 30 30 30 30 30 30 30 30 31 31 32 33 34 34 34 34 33 31 30 29 29 29 29 29 29 28 28 27 27 28 28 29 29 30 30 29 29 29 30 32 32 32 32
17 17 17 18 18 18 18 18 18 17 17 16 16 17 19 20 20 20 21 22 23 23 23 23 23 23 23 22 22 21 21 21 21 22 22 23 25 26 28 29 30 31 31 31 31 31 31 31 30 30 30 30 30 31 32 33 33 34 34 33 32 31 30 30 29 29 29 29 29 29 28 28 28 29 30 30 31 31 30 30 30 31 33 34 34 33
16 17 17 17 17 17 17 17 17 17 17 17 17 18 18 19 19 20 21 22 23 24 23 23 24 25 25 24 23 23 23 22 22 22 23 23 23 24 25 26 28 30 31 30 30 31 32 31 31 31 31 30 30 30 31 32 33 33 33 33 32 31 31 30 30 30 30 30 29 29 29 28 29 29 30 31 31 32 31 30 30 32 35 36 36 35
15 15 15 15 16 17 17 17 17 18 19 19 19 20 21 21 20 20 21 22 24 24 24 24 25 27 27 27 25 24 24 23 22 22 23 24 23 23 23 24 26 28 29 29 30 31 32 31 31 31 31 31 30 30 31 32 33 34 34 33 33 32 31 31 30 30 30 30 29 29 29 29 29 30 31 31 32 32 32 31 31 33 37 38 38 37
16 15 15 15 16 17 18 18 18 19 20 20 20 20 20 20 20 20 20 22 22 22 21 21 21 23 26 27 26 24 23 23 23 23 23 24 24 23 22 23 24 25 26 27 28 29 30 30 30 30 30 30 30 30 31 32 33 34 34 34 33 33 32 31 31 31 30 30 30 29 29 29 30 30 31 32 32 33 32 32 33 35 38 39 39 38
17 17 17 17 18 19 20 19 19 20 20 20 20 19 19 19 19 20 20 20 19 18 18 17 12 10 15 23 25 23 21 21 22 22 22 24 23 22 22 22 22 23 24 24 25 27 27 28 29 29 29 29 29 30 31 33 34 35 35 35 34 33 33 32 32 31 31 31 30 29 29 29 30 31 31 32 33 33 33 33 34 37 39 40 39 38
17 18 18 18 19 20 20 20 20 20 20 20 20 20 20 20 20 19 19 19 18 17 17 16 12 8 6 14 19 20 19 19 20 21 22 24 24 23 22 23 24 25 24 24 23 24 25 26 27 28 29 29 29 29 30 32 35 36 36 36 35 34 34 33 33 32 32 31 30 30 29 29 30 30 31 32 33 33 33 34 36 38 40 40 39 38
18 19 19 19 20 21 21 21 20 20 20 20 20 20 20 20 20 20 21 21 20 20 20 17 16 15 14 17 18 17 17 19 20 21 22 24 25 24 22 23 24 25 26 26 24 23 23 24 25 27 28 29 29 29 30 32 34 37 38 37 36 35 35 34 33 33 33 32 31 30 29 29 29 30 30 31 32 33 33 35 37 39 40 40 40 39
20 20 20 20 21 22 22 22 22 21 21 21 20 20 21 21 20 20 21 21 21 21 22 21 21 21 21 23 23 21 18 17 19 21 23 24 25 25 23 21 22 24 26 26 26 24 23 23 24 25 27 29 30 30 30 31 34 36 38 39 38 37 36 35 34 34 33 33 32 31 30 29 29 29 30 30 30 32 33 36 38 41 41 41 40 39
21 23 23 22 22 22 22 22 22 22 22 21 21 21 22 21 21 21 21 21 21 22 22 22 23 23 23 22 22 21 17 15 17 20 22 23 24 24 23 21 21 23 25 26 26 25 24 23 23 24 26 28 30 31 31 32 33 36 38 39 39 39 37 36 35 34 34 33 32 31 30 29 29 29 29 29 30 32 34 37 40 42 42 42 41 41
24 24 24 23 23 23 24 24 23 23 23 22 22 23 23 22 22 23 23 23 23 23 24 24 25 26 26 26 25 25 23 21 20 20 21 19 21 23 21 21 22 23 24 25 25 24 23 23 23 24 26 28 30 31 32 32 33 35 38 40 41 40 39 37 36 35 34 33 32 31 30 30 29 29 29 30 31 34 36 40 42 43 44 44 43 42
25 26 25 24 24 25 25 25 24 24 23 23 24 26 25 25 25 25 25 25 24 25 26 28 28 29 29 29 29 30 30 28 26 23 20 14 17 22 20 19 21 23 24 24 23 22 22 22 23 24 25 27 29 31 32 33 33 35 37 39 41 41 40 39 37 35 35 34 33 33 32 31 30 30 30 32 34 37 40 43 44 45 45 45 44 42
25 26 25 24 23 23 24 24 24 24 24 24 25 26 26 27 27 27 27 26 26 26 27 27 28 28 29 29 29 30 30 29 28 24 19 16 19 22 21 18 19 21 23 23 22 21 21 21 22 23 24 26 28 30 31 32 33 34 36 39 41 42 41 40 38 36 36 35 35 34 34 33 32 31 32 34 36 40 43 45 46 46 46 44 43 40
24 25 26 26 25 25 26 26 26 26 26 27 28 28 28 28 27 27 27 27 26 25 25 25 24 24 26 27 27 28 28 27 26 24 21 18 19 21 21 18 17 18 21 21 21 20 21 21 22 22 24 25 27 29 30 31 32 34 36 38 41 42 42 41 39 37 37 37 37 37 36 35 34 33 34 36 38 41 45 46 47 46 44 42 40 37
28 28 29 30 30 31 31 32 32 32 32 32 31 31 31 30 29 28 27 25 23 22 22 20 18 19 23 24 24 25 26 25 24 24 23 18 17 18 20 19 16 16 19 19 19 20 21 22 23 23 23 24 25 27 29 31 32 33 35 38 41 43 43 42 40 38 38 38 39 39 38 37 36 36 36 38 40 43 45 46 45 43 41 39 37 35
31 32 33 33 34 34 35 35 36 36 37 37 36 35 34 32 30 28 26 24 22 21 20 15 12 12 17 18 21 24 25 23 23 24 23 19 17 18 20 20 19 18 19 19 19 20 21 23 23 22 22 23 24 25 28 30 32 33 34 36 40 43 44 43 41 40 39 40 40 40 40 39 39 38 38 40 42 43 44 44 43 40 38 36 35 34
31 32 33 34 34 35 35 36 37 37 38 38 39 38 35 33 31 29 28 27 25 24 22 15 10 8 8 12 18 23 24 24 24 24 23 21 18 19 24 24 23 22 22 20 18 18 20 23 23 22 22 23 23 24 26 28 31 32 33 35 38 41 44 43 42 41 40 41 42 42 42 41 41 40 40 41 42 43 43 43 41 39 37 36 35 34
28 29 31 32 32 33 34 35 36 36 37 37 38 37 34 32 30 30 31 30 27 25 23 20 17 13 11 15 19 21 23 24 25 24 23 21 20 22 26 25 25 25 22 19 16 15 18 22 23 22 22 23 22 23 24 26 29 31 32 33 35 39 42 43 43 42 42 42 43 43 43 43 43 43 42 42 43 43 43 42 40 38 37 36 34 33
27 27 28 29 30 30 31 32 33 33 34 34 34 34 32 31 31 32 32 30 28 26 25 24 23 21 19 17 14 14 17 23 24 22 22 20 20 22 23 24 26 26 21 17 11 9 13 18 21 23 25 24 23 23 24 24 26 28 30 31 33 36 40 43 43 43 43 43 44 44 45 45 45 45 44 43 43 43 42 41 40 38 36 34 33 32
28 28 29 29 29 29 29 29 29 30 30 30 30 30 30 30 30 30 30 29 27 26 26 25 25 25 23 12 7 6 7 18 21 20 20 19 20 21 21 23 25 26 24 19 9 3 7 11 16 21 26 26 25 25 25 24 25 27 28 30 32 35 38 42 44 44 44 44 45 45 46 46 46 45 45 44 44 43 42 41 39 37 34 33 31 29
29 29 30 30 30 29 28 28 28 28 28 28 27 27 28 28 28 28 28 27 27 26 26 25 25 26 25 18 13 10 10 18 20 19 19 19 19 19 19 21 23 24 25 26 21 12 7 5 9 16 22 25 27 28 28 27 27 28 28 29 30 33 37 41 43 44 45 45 46 47 47 47 46 45 44 44 43 43 42 40 38 36 33 32 30 28
30 30 30 29 29 29 28 27 27 27 27 27 27 27 27 27 26 26 26 27 27 26 25 24 24 23 23 24 23 22 24 25 24 21 20 19 17 15 16 19 20 21 22 25 28 25 16 11 8 10 15 21 25 28 30 29 29 29 29 29 30 32 35 39 42 43 43 44 46 47 48 48 47 45 44 44 43 42 41 40 38 36 34 32 30 27
29 29 29 28 28 28 28 28 28 27 27 27 27 27 26 26 26 26 26 27 27 27 26 25 23 22 21 22 24 26 28 28 26 24 22 22 19 16 15 16 18 18 18 19 21 23 20 18 11 6 8 14 20 24 28 29 29 29 29 29 30 32 35 37 39 41 41 41 43 45 46 46 46 45 44 43 43 41 40 39 38 36 35 33 31 28
28 28 28 28 28 28 28 28 28 27 27 27 27 26 26 26 26 26 26 27 27 27 27 26 25 24 24 23 22 23 26 27 26 24 23 23 22 20 18 17 17 17 16 16 15 15 14 17 13 6 5 8 12 18 24 27 28 29 29 29 30 32 35 36 38 38 37 38 39 41 42 42 42 42 42 42 42 40 39 38 38 37 36 34 32 30
28 28 28 28 27 27 27 27 27 27 27 27 26 26 26 26 26 26 27 27 27 27 27 27 27 27 27 26 25 25 26 27 25 24 24 25 25 23 20 18 17 17 18 17 15 13 12 13 13 10 7 6 7 11 18 23 26 27 27 27 28 30 34 36 37 37 35 35 36 37 38 38 38 38 39 40 39 39 39 38 37 36 35 34 32 31
28 28 28 27 26 25 26 26 26 26 27 27 26 27 27 27 27 27 27 27 27 27 28 28 28 29 29 29 28 28 28 27 26 25 25 26 26 25 22 20 19 19 20 19 17 15 12 10 9 9 8 7 6 7 12 18 22 23 23 24 25 27 31 34 36 36 35 34 34 36 37 37 36 36 36 36 36 36 36 36 35 34 33 32 31 30
25 25 25 25 25 25 25 25 26 27 27 27 27 27 27 27 27 27 27 26 27 27 28 27 27 28 29 30 31 31 30 29 28 28 28 27 27 26 25 23 23 23 23 22 20 17 15 9 6 6 5 8 8 8 11 15 17 18 19 20 23 26 28 31 34 35 35 34 34 35 36 36 35 35 34 34 34 33 32 32 31 30 29 28 28 28
24 24 25 26 26 25 25 26 26 27 27 27 27 26 26 26 26 26 26 26 26 26 27 27 27 27 28 29 30 31 31 31 32 33 33 32 31 29 27 25 24 23 23 23 22 20 18 14 10 7 4 6 9 10 12 15 17 17 17 18 19 22 25 29 32 34 34 34 33 33 34 35 35 34 33 33 32 31 30 29 28 28 26 25 24 24
24 25 25 26 26 26 26 27 27 27 26 26 26 26 25 25 25 25 25 25 25 26 26 27 27 26 27 28 29 30 31 32 33 35 36 37 35 32 29 26 24 23 24 25 25 25 23 20 17 15 13 11 10 11 12 15 17 18 18 16 14 16 21 26 30 32 32 33 33 33 33 34 34 34 33 33 32 32 31 29 28 28 27 25 24 23
24 24 25 25 25 26 26 27 27 27 26 25 25 25 24 23 23 23 22 23 24 24 24 24 24 25 26 27 29 30 31 33 33 34 36 37 36 33 30 28 26 25 25 26 26 26 26 23 21 19 18 16 14 13 14 16 19 21 21 18 16 16 20 23 26 28 30 31 31 32 33 33 33 32 31 31 31 32 32 31 30 28 27 26 25 24
24 24 25 25 26 26 27 28 28 27 26 26 25 24 23 23 23 21 20 20 21 23 23 23 23 23 23 25 26 28 29 31 32 33 34 35 35 34 32 30 28 27 27 26 26 25 25 25 24 22 21 19 16 14 13 16 19 22 22 21 20 19 20 21 24 26 27 28 29 30 31 32 32 31 30 29 29 30 31 31 30 29 27 26 25 24
25 25 25 26 26 27 27 25 24 22 22 21 22 23 23 23 22 21 21 21 22 23 23 22 22 23 23 23 23 24 25 27 29 30 30 31 33 33 33 32 30 28 27 26 24 23 23 23 23 23 22 21 19 16 14 16 19 21 22 23 22 19 14 16 20 24 26 27 28 29 30 31 30 30 29 28 29 29 29 30 29 29 27 26 25 24
25 25 25 25 25 24 22 20 19 19 19 20 21 23 24 24 23 22 22 22 23 24 23 23 23 23 22 22 22 22 22 23 24 25 26 28 31 33 32 31 30 28 28 27 24 21 19 19 19 20 21 21 21 19 17 17 19 20 22 23 24 21 18 18 22 24 24 25 27 28 30 30 30 29 28 27 28 29 29 29 28 27 26 25 24 23
26 26 26 25 25 25 24 23 22 21 21 21 22 22 24 24 23 22 22 22 24 24 23 23 21 20 19 19 20 20 19 20 21 22 24 26 28 29 29 29 28 28 29 29 27 23 19 16 15 16 18 19 20 20 19 19 20 21 21 22 23 22 22 23 26 27 25 24 25 27 29 30 30 28 27 26 27 28 28 28 27 26 25 25 24 23
25 25 25 25 24 24 24 23 22 21 21 22 22 23 23 23 22 22 22 23 24 24 24 22 21 19 17 17 18 18 18 19 20 20 21 23 24 25 25 26 27 28 29 29 28 26 24 21 19 17 16 16 18 19 20 21 21 21 21 22 21 20 20 23 26 28 27 26 26 28 29 30 30 28 25 24 25 26 27 27 27 27 27 26 25 24
24 24 24 24 24 24 24 23 22 22 21 22 22 23 23 22 21 20 21 22 23 23 23 22 21 20 19 19 19 18 18 18 18 18 18 19 20 21 21 23 26 28 30 31 30 28 26 26 26 23 20 17 15 16 18 20 22 22 22 22 22 20 20 21 24 27 29 28 28 29 29 29 28 26 24 24 24 24 25 26 27 27 27 26 25 24
23 23 24 24 24 23 23 23 22 22 22 22 23 23 23 22 21 20 20 22 22 21 22 21 20 20 20 20 20 19 19 18 18 18 17 17 18 18 19 21 24 27 30 32 32 30 29 30 29 28 26 22 18 16 17 19 21 22 23 23 23 21 20 21 23 26 28 29 30 31 31 30 27 25 24 23 22 22 23 24 26 26 26 26 26 25
23 23 23 23 22 22 23 23 23 22 22 22 23 23 24 24 24 22 21 22 22 22 21 21 20 18 18 18 18 19 19 19 18 17 17 17 16 17 18 19 21 24 26 28 28 27 27 29 30 30 30 27 23 21 20 20 21 22 23 24 23 22 20 21 23 26 27 28 30 32 32 31 29 29 27 24 21 20 21 23 25 26 26 26 25 25
23 23 23 22 22 22 22 23 22 22 22 23 22 22 23 24 23 22 22 22 22 22 22 21 20 18 17 17 18 18 18 17 17 16 16 17 17 16 16 17 18 19 19 19 19 19 18 19 21 22 24 25 25 23 22 21 21 21 22 22 22 22 21 21 23 25 27 28 29 31 31 30 29 29 28 25 22 21 21 22 23 25 26 26 25 24
24 24 24 23 23 23 23 23 22 22 23 23 22 22 23 23 23 22 22 21 22 22 22 22 20 18 17 17 18 19 18 17 16 15 16 16 16 16 16 16 16 14 11 9 8 7 6 6 6 8 11 18 22 24 24 23 22 21 20 20 21 21 21 21 22 25 27 28 29 29 28 27 27 27 26 24 22 20 19 20 22 24 26 26 25 24
Wind_Direction
278 279 278 277 278 280 281 282 283 284 284 285 286 286 287 287 287 288 290 291 290 287 282 279 277 276 276 276 276 275 273 271 268 264 261 257 254 252 251 250 250 252 254 257 259 258 254 250 245 243 241 239 239 240 240 240 237 234 231 229 227 225 225 224 225 226 227 229 232 234 236 237 239 241 239 232 226 221 219 219 220 221 222 221 218 216
279 279 276 274 273 276 279 281 280 280 281 283 284 286 287 286 286 286 286 286 286 284 282 280 279 278 277 277 277 277 276 275 273 270 265 261 257 254 252 251 250 250 250 253 256 258 258 255 251 247 244 241 239 239 239 239 236 233 230 228 226 225 225 225 225 226 228 231 233 235 237 238 239 240 238 231 224 218 217 217 218 220 221 219 217 214
282 282 280 279 278 277 279 281 281 279 280 282 284 285 286 287 286 285 284 283 281 280 279 278 279 279 279 278 278 277 277 276 275 273 271 267 262 258 255 253 252 250 250 251 253 256 258 256 253 248 243 240 238 237 237 236 234 232 230 228 227 227 227 226 227 228 230 232 235 237 238 238 239 239 236 229 221 216 214 214 216 218 219 217 214 212
284 284 283 284 282 278 278 281 282 282 282 283 284 285 285 285 284 283 282 282 281 279 277 276 277 277 278 278 278 278 277 276 275 275 274 272 269 264 260 257 255 253 251 251 251 253 255 254 250 245 240 236 234 234 234 233 232 231 230 229 230 230 230 229 229 230 231 233 235 237 238 238 238 238 234 227 220 215 214 214 215 216 216 215 212 209
283 284 285 286 285 283 282 282 283 284 284 284 283 283 283 282 282 282 282 281 280 278 277 276 275 276 276 277 278 278 277 277 276 275 275 275 273 270 266 262 259 256 254 252 251 251 251 249 245 240 235 231 230 230 231 231 231 231 231 232 233 233 233 232 232 232 232 233 235 236 237 237 237 235 232 226 220 216 214 214 214 215 215 213 210 207
284 285 287 287 286 286 286 285 284 284 284 283 281 280 279 279 280 280 281 280 279 278 276 275 274 274 274 275 276 276 276 277 276 276 276 276 275 272 267 263 259 256 253 251 249 247 245 242 238 234 230 227 227 228 230 231 232 233 234 235 235 235 235 234 233 233 232 233 233 234 235 234 234 232 229 224 219 215 213 212 213 214 214 211 208 206
286 286 286 285 284 284 284 284 283 282 281 280 279 278 277 277 277 277 277 277 277 277 276 275 273 273 272 273 273 274 275 276 276 275 275 275 274 270 265 259 254 250 247 245 243 240 238 235 232 229 226 225 226 228 230 232 234 235 237 237 237 236 235 234 233 232 231 231 231 231 230 229 228 227 224 220 216 213 211 211 212 213 213 210 207 205
286 285 284 283 283 283 283 281 280 279 278 278 279 279 279 278 277 277 276 276 276 276 275 274 274 273 272 272 272 273 273 273 273 273 273 273 271 267 260 254 248 245 242 240 237 235 232 230 228 226 225 226 227 229 232 234 236 237 237 238 237 236 235 233 231 230 229 228 227 226 224 222 221 220 219 216 214 211 210 210 211 213 212 210 207 205
285 286 285 284 284 285 285 282 280 279 279 279 280 281 281 281 281 280 279 277 276 274 274 274 274 274 273 273 272 271 271 270 269 267 267 267 267 263 256 249 244 242 240 239 237 234 232 230 228 228 228 229 231 232 235 236 238 238 238 237 237 235 233 231 229 227 226 224 223 221 218 216 215 215 214 214 214 213 212 212 212 213 212 209 207 205
284 285 286 285 285 284 284 284 283 283 282 282 281 280 279 280 281 281 280 278 276 275 274 274 274 275 275 275 273 271 270 269 268 266 265 265 264 260 254 248 243 241 241 241 240 238 235 233 232 231 232 233 234 235 237 239 239 239 238 237 236 234 231 228 226 224 222 220 218 216 214 213 213 212 212 213 215 216 216 216 215 213 211 208 207 205
284 284 286 286 286 284 282 283 284 285 284 282 280 278 275 274 275 277 278 277 276 276 275 274 274 274 276 276 275 273 271 270 270 269 267 267 265 261 255 249 246 244 244 245 245 243 241 239 237 236 235 236 236 237 239 239 239 239 237 235 233 231 228 225 222 220 218 217 215 214 213 213 214 213 212 214 216 218 219 219 217 214 210 208 206 205
286 287 287 287 287 286 285 284 285 285 283 281 278 276 273 270 269 270 272 273 274 275 275 274 273 273 274 275 276 275 273 271 269 269 269 269 267 263 259 254 251 249 248 248 247 247 245 243 242 240 239 238 238 238 238 238 238 237 235 232 230 227 223 220 218 216 215 214 214 214 214 215 217 217 216 215 217 219 220 220 218 214 211 207 205 204
286 288 288 287 287 287 287 287 287 286 283 279 276 275 275 275 274 272 271 271 272 274 275 276 275 274 273 273 274 275 274 271 269 268 269 268 266 263 260 258 256 254 252 251 249 248 247 246 245 243 241 240 239 238 237 236 235 234 231 229 226 222 219 216 214 213 212 213 213 214 216 218 220 221 220 218 218 219 220 220 218 215 211 207 205 203
286 287 287 286 286 286 287 288 288 287 285 283 282 282 284 286 285 282 279 276 275 276 277 277 276 275 274 273 272 272 272 271 270 268 267 265 263 261 260 258 257 256 254 251 250 249 249 248 246 244 242 240 238 237 236 234 233 231 228 225 222 218 215 213 211 210 210 211 213 215 217 220 222 224 223 220 218 218 219 219 218 216 212 208 204 202
286 287 287 285 284 285 286 287 286 285 285 285 285 287 288 288 287 284 281 280 279 279 278 276 275 274 273 272 271 270 269 268 267 266 266 264 261 259 258 258 257 256 253 250 249 249 249 248 246 245 243 241 238 235 233 232 230 229 226 223 220 217 214 211 210 209 210 211 213 215 218 220 223 225 225 221 218 218 218 218 218 216 213 208 204 200
283 284 284 284 283 283 283 284 284 283 283 284 284 285 286 285 283 281 280 280 280 279 276 273 273 273 271 270 268 266 264 263 263 264 265 264 260 256 253 253 253 252 251 249 247 246 246 246 245 245 244 242 239 236 232 230 228 227 225 223 220 218 214 212 210 209 209 210 213 215 218 220 223 225 224 221 218 217 217 218 218 215 209 205 202 199
278 279 279 280 281 281 281 280 280 280 282 283 283 282 282 282 283 284 284 286 287 285 280 275 272 269 272 271 268 263 257 257 258 261 263 264 261 256 250 246 247 248 248 247 246 244 242 241 241 243 243 243 241 238 233 230 228 226 224 222 221 219 217 213 211 209 209 210 212 215 217 220 222 224 223 220 216 215 216 218 217 212 205 201 198 196
273 274 275 275 277 278 279 279 279 279 280 281 282 282 281 281 282 284 286 288 290 292 290 287 282 277 275 275 273 267 255 251 254 259 262 264 263 259 251 246 245 246 247 247 246 244 241 239 238 239 241 242 242 240 236 232 228 226 224 223 222 221 219 216 213 210 210 210 212 215 217 219 221 222 221 217 214 213 214 216 215 209 203 198 196 194
271 271 272 273 275 276 277 277 278 279 279 280 281 283 282 280 280 280 279 280 282 284 285 287 286 284 283 281 281 278 265 252 252 256 259 262 263 261 253 246 243 243 246 247 246 244 243 242 241 240 240 241 242 242 239 234 231 228 225 224 223 222 220 218 214 211 210 210 212 214 217 219 220 220 218 214 211 210 213 214 212 207 201 197 195 194
271 269 268 270 273 275 274 274 274 275 276 278 280 281 280 280 280 278 277 278 278 278 277 277 278 279 281 282 284 285 277 259 251 252 255 258 260 260 254 244 240 242 245 246 246 246 245 245 244 242 241 241 242 242 241 238 234 230 228 225 223 222 221 219 215 212 210 210 212 214 216 218 218 217 214 211 209 209 211 213 210 205 200 197 195 194
270 269 267 268 270 271 271 271 271 272 274 277 279 279 278 279 279 277 276 277 277 276 275 273 272 273 277 281 284 287 289 274 259 254 257 258 258 256 251 244 241 242 245 246 247 247 246 246 245 243 242 241 241 242 241 239 236 233 230 227 224 222 221 219 216 213 211 211 212 214 216 217 216 214 211 209 209 210 211 211 208 204 200 197 196 195
268 268 268 267 267 267 269 271 272 272 273 275 276 276 275 275 274 274 273 274 274 273 273 272 272 272 274 277 280 284 288 285 277 271 269 264 258 254 248 240 239 242 244 246 246 246 246 246 246 245 244 243 242 241 239 238 235 233 231 228 225 222 220 219 216 214 212 212 214 216 217 217 215 212 210 209 210 211 211 209 206 203 200 198 196 195
265 267 268 268 266 266 268 270 271 272 271 271 270 269 268 267 267 267 268 268 267 267 268 270 271 271 271 272 273 274 277 280 281 280 277 273 264 258 249 236 234 239 241 243 244 245 245 245 245 246 245 243 242 240 238 236 234 233 231 229 226 223 220 219 217 214 213 214 216 217 218 217 214 211 208 208 209 209 208 205 203 200 198 196 194 193
266 268 269 269 268 268 269 270 271 272 272 271 270 269 267 266 265 264 264 263 263 263 264 265 267 267 267 267 268 270 270 271 272 274 273 272 269 264 254 238 230 233 237 239 241 243 245 245 245 244 242 242 241 239 237 235 233 232 231 229 227 223 221 219 217 215 215 216 217 218 218 217 214 210 207 206 206 205 203 200 198 196 194 192 191 190
269 270 270 271 271 270 271 271 272 273 274 275 275 276 276 276 274 271 269 268 266 265 264 264 263 262 262 263 265 266 266 265 264 263 264 267 269 267 259 244 234 233 238 239 240 241 244 245 245 242 241 240 240 238 236 234 232 231 230 229 227 224 221 219 217 216 216 217 218 218 218 216 213 209 206 204 203 202 199 196 194 192 191 190 189 188
268 268 269 269 270 270 270 271 271 272 273 274 275 276 278 280 282 281 279 276 274 273 272 268 263 260 261 262 262 262 263 262 259 255 255 259 266 267 261 251 243 241 245 243 241 241 243 245 244 242 240 240 239 238 235 232 230 229 229 227 226 224 221 219 217 216 216 217 217 217 216 215 212 209 205 204 202 200 197 194 192 190 189 189 189 190
267 267 268 268 269 269 269 269 270 271 271 271 271 271 273 276 278 279 277 276 278 280 279 275 270 266 264 261 261 262 262 261 257 253 252 254 260 264 261 257 255 256 256 253 247 241 239 241 242 241 239 239 239 237 234 231 229 227 227 226 224 222 220 218 217 216 216 216 216 215 214 213 211 207 204 203 201 199 196 194 192 192 191 191 191 192
268 268 268 268 269 269 269 269 269 270 270 270 269 269 270 270 271 270 269 271 274 276 275 273 273 275 271 267 265 265 264 261 258 255 254 254 256 257 258 258 260 261 261 257 249 238 233 235 237 237 237 238 238 236 234 231 229 227 226 226 224 222 219 218 216 215 215 215 215 214 212 211 209 206 203 202 200 198 196 195 194 194 193 193 192 192
270 269 269 269 269 270 271 271 271 271 269 268 268 267 267 266 266 266 267 269 269 268 267 268 270 273 275 274 273 271 266 262 259 256 254 254 255 256 257 258 258 258 256 252 246 237 231 231 231 230 232 235 235 234 233 232 230 227 226 226 225 223 220 217 216 215 214 214 213 212 211 210 208 205 202 200 199 198 197 196 195 194 193 192 191 190
275 274 272 272 272 273 274 275 274 273 271 268 267 265 264 263 263 264 266 267 265 262 261 263 265 267 271 275 276 272 266 262 259 255 251 251 253 256 257 257 255 252 246 243 241 237 234 232 229 227 228 231 232 231 231 231 230 228 226 225 226 225 222 218 216 214 214 213 213 211 210 208 206 203 200 198 198 198 197 196 195 193 190 189 189 189
280 279 279 278 278 277 277 276 275 274 273 271 268 266 264 263 262 262 263 263 260 257 257 258 260 262 263 267 269 266 264 264 261 254 249 249 252 254 255 254 252 247 238 232 229 233 238 235 230 228 227 228 229 230 229 228 227 226 225 225 225 225 222 219 216 214 214 213 213 211 209 207 204 201 198 196 196 196 196 195 193 191 188 187 187 187
282 281 280 280 279 278 277 275 274 273 273 271 270 268 266 263 261 260 260 259 257 255 254 256 257 258 258 257 257 259 262 265 265 260 252 251 253 253 249 248 248 244 235 226 224 228 233 230 225 223 222 224 226 228 229 228 226 224 224 223 223 222 220 217 214 213 212 212 213 212 210 207 203 199 196 194 194 195 194 193 191 189 187 186 185 186
280 279 278 277 277 276 274 273 272 271 270 270 269 268 266 263 260 257 256 256 255 254 254 255 257 257 257 256 256 258 260 263 265 264 258 255 256 254 245 242 244 244 238 228 225 227 232 233 222 209 211 217 221 224 227 227 226 224 222 221 220 218 216 212 210 208 207 208 209 209 208 206 202 198 194 193 193 193 193 192 191 189 188 186 185 184
276 275 274 274 274 273 272 271 270 268 268 267 267 266 264 263 260 258 256 256 256 255 255 256 257 258 259 259 258 259 259 260 261 262 261 257 257 256 249 242 244 247 246 237 229 226 229 229 221 198 196 210 217 221 223 225 225 223 221 220 218 216 212 208 205 203 202 201 201 202 202 201 199 196 193 192 192 192 191 191 190 190 190 188 185 182
275 274 274 273 273 272 270 268 267 266 266 265 265 264 263 263 262 261 259 258 257 256 255 255 255 256 257 259 260 261 260 260 260 260 260 257 257 258 257 250 246 246 246 243 235 228 228 225 219 198 179 195 210 218 220 221 221 221 220 219 217 213 209 204 201 198 196 195 194 194 194 193 191 190 190 190 190 190 190 189 190 190 190 189 187 184
274 274 273 272 270 269 268 266 265 265 265 265 265 264 264 263 263 262 261 259 257 256 255 254 253 253 253 255 257 259 261 261 260 259 258 257 257 259 260 257 251 246 244 242 236 230 228 225 220 210 194 186 200 213 217 217 217 217 216 215 213 209 205 201 197 194 191 189 188 187 186 185 184 184 185 187 187 188 188 188 188 189 189 189 189 187
271 271 270 269 268 267 267 267 267 267 267 266 265 264 264 263 262 262 261 259 257 256 255 255 253 252 251 251 253 255 258 261 261 260 258 257 257 258 260 261 259 253 247 242 236 229 224 221 217 212 207 202 197 199 206 209 209 208 208 206 204 200 197 195 192 189 186 183 182 182 181 180 179 180 181 183 184 184 185 186 186 187 188 188 189 189
271 271 271 271 271 271 272 271 270 269 268 267 266 264 263 262 261 260 259 258 257 256 256 255 254 253 252 251 252 253 256 259 260 260 259 257 255 255 256 260 261 258 252 247 239 230 222 215 206 203 207 212 208 197 192 195 196 196 196 195 193 190 187 186 185 183 181 179 178 178 177 177 177 176 177 177 177 177 178 180 182 184 185 186 187 187
276 276 276 275 275 274 273 272 271 269 268 267 265 264 263 262 261 260 259 258 258 257 256 255 255 255 255 255 255 255 256 257 259 260 260 258 255 252 251 254 258 259 258 254 247 237 227 220 210 201 196 209 210 203 193 189 188 187 184 182 181 181 180 179 179 178 177 175 174 173 174 174 174 173 172 171 171 171 172 173 176 179 180 180 181 182
275 275 274 274 273 272 271 270 269 269 268 267 266 265 264 263 262 262 261 260 259 258 257 256 256 257 258 258 258 258 257 257 258 258 259 258 256 253 250 250 253 258 261 260 255 248 239 226 216 210 207 207 204 198 191 188 186 182 175 173 175 177 175 174 174 175 173 172 171 170 170 171 171 170 170 169 169 170 171 172 174 176 177 176 175 175
273 273 272 272 272 271 270 269 269 268 267 266 265 264 262 261 262 262 261 260 260 259 258 257 258 260 260 260 261 260 258 256 255 254 254 255 255 254 251 249 251 255 258 260 258 252 242 231 222 216 212 208 201 192 187 187 185 181 177 177 177 175 172 171 172 171 170 170 170 170 169 169 169 168 169 169 170 171 172 172 172 173 175 175 175 174
274 273 273 273 273 273 272 270 268 266 265 263 262 260 259 259 259 259 259 259 259 260 261 261 262 263 263 262 261 260 257 254 251 249 249 250 252 252 251 249 249 250 253 256 257 253 246 236 228 221 216 208 199 189 186 185 185 184 183 180 175 170 169 172 172 170 167 167 167 168 167 167 167 167 168 168 169 171 173 173 173 172 172 174 175 175
275 275 275 276 276 275 274 272 270 268 266 263 261 260 260 259 259 258 259 259 260 261 262 261 262 264 265 265 264 262 259 255 251 248 246 247 248 248 247 246 245 246 248 251 254 254 250 240 228 218 210 201 193 186 181 182 184 186 185 180 172 165 165 172 172 170 167 166 166 166 166 166 166 167 167 168 169 170 171 172 172 172 172 173 175 176
277 278 279 280 281 282 283 283 281 278 273 268 265 264 263 262 261 260 259 259 260 260 260 260 260 262 264 265 265 265 263 259 255 251 248 247 247 245 243 241 241 242 243 245 246 247 245 240 230 220 209 199 192 186 181 180 183 185 185 180 175 172 173 171 169 168 166 165 165 165 166 165 164 164 164 165 167 168 169 169 170 171 172 173 174 175
276 277 277 277 278 279 282 283 282 279 274 270 267 266 265 264 261 258 256 256 257 257 256 256 258 260 261 261 262 263 263 262 258 253 250 249 248 245 242 239 239 241 242 241 240 237 234 229 227 222 211 200 191 186 182 180 182 183 183 180 178 176 174 170 169 168 166 165 165 165 165 163 161 159 159 161 164 166 167 167 168 169 170 171 172 174
274 274 273 273 273 274 274 275 275 273 271 269 268 267 266 264 261 257 252 252 254 254 254 253 255 257 259 260 261 261 260 260 258 254 250 249 249 247 244 242 242 242 241 239 237 234 230 225 221 217 209 200 192 187 184 181 180 181 180 179 176 172 168 169 170 170 168 166 165 164 164 162 160 157 156 158 160 163 166 167 168 169 170 170 171 173
273 272 271 271 271 271 271 272 271 270 269 269 269 268 268 266 262 257 253 251 252 253 254 253 252 252 254 258 259 258 258 257 255 253 250 247 248 248 245 245 245 245 243 239 236 233 229 225 220 213 204 195 189 186 183 181 180 179 178 176 173 169 166 168 171 171 170 168 166 164 162 161 159 157 156 157 158 160 164 167 169 170 170 170 170 171
274 273 272 272 271 271 271 270 269 268 268 268 269 269 268 266 263 260 257 255 254 253 253 251 250 249 250 251 252 253 253 254 254 253 250 247 247 246 244 244 244 244 242 240 237 234 230 225 219 212 203 195 187 183 181 180 179 178 176 174 172 170 168 169 171 171 171 169 167 165 163 162 161 158 156 155 155 158 162 166 169 171 171 170 170 170
280 279 278 277 275 273 272 271 270 269 268 269 269 269 268 267 264 261 259 258 258 257 256 254 252 249 247 246 247 249 251 253 254 254 251 248 246 244 243 241 241 241 240 239 236 233 229 224 219 214 207 198 190 183 179 178 178 176 174 174 173 171 168 168 169 171 171 169 168 167 166 166 165 163 159 156 155 158 161 164 168 170 171 171 171 171
285 285 284 283 282 280 278 276 274 272 270 269 268 267 267 266 264 261 258 257 257 257 256 255 253 251 248 246 247 250 253 255 256 253 250 248 245 243 240 239 238 237 236 233 228 221 215 212 210 208 205 200 193 184 177 174 173 172 172 173 173 171 168 167 168 170 170 169 168 168 167 167 166 165 162 159 157 157 159 162 166 169 172 172 172 172
285 285 284 284 283 282 281 280 278 275 273 272 270 268 267 266 264 262 259 256 255 255 254 253 251 250 249 248 249 251 254 255 255 252 248 245 243 240 239 238 234 227 220 212 202 190 178 178 184 190 191 190 187 183 177 170 167 167 169 171 171 169 166 165 166 168 169 169 169 168 167 166 165 164 163 159 157 156 157 160 164 168 171 172 173 174
Height
744 743 742 742 741 740 739 739 739 738 737 735 735 734 733 733 732 730 730 729 729 728 728 727 726 726 725 725 725 724 724 725 725 725 725 725 725 725 725 725 725 726 726 727 727 728 729 729 730 730 730 731 732 733 734 734 735 735 735 736 737 738 739 740 740 741 742 743 745 745 747 748 748 749 750 751 752 753 754 755 756 757 758 759 760 761
743 741 740 740 739 739 737 737 737 737 736 735 734 733 732 731 730 730 729 729 728 727 727 726 725 724 724 723 723 722 722 722 722 722 722 723 723 723 723 723 724 724 724 725 725 725 726 727 728 728 729 730 730 731 732 732 733 733 734 734 735 736 737 737 738 739 740 741 742 744 745 745 746 747 748 749 750 751 752 753 755 755 757 757 758 759
741 740 738 738 737 737 736 735 735 735 735 734 733 732 731 730 729 728 728 728 727 726 725 725 724 723 722 721 721 720 720 720 720 720 720 720 720 720 720 721 721 721 722 722 722 723 724 724 725 726 727 727 728 729 730 730 731 731 732 732 733 734 735 735 736 737 738 739 740 742 743 744 744 745 746 747 748 749 750 751 752 754 755 755 756 757
740 738 736 736 736 735 734 734 734 734 734 733 732 731 730 730 728 727 727 726 725 725 724 724 723 722 721 720 720 719 718 718 718 718 718 717 717 717 718 718 718 718 719 719 720 720 721 722 722 723 724 725 726 727 728 728 729 730 730 731 731 732 733 733 734 735 736 737 738 739 740 741 742 743 744 745 746 747 748 749 750 752 753 754 754 755
738 737 735 735 734 733 732 733 733 732 732 731 731 730 729 728 727 726 725 725 724 723 722 722 721 721 720 719 718 717 716 715 715 715 715 715 715 715 715 715 715 715 715 716 717 717 718 719 720 720 721 722 724 725 725 726 727 727 728 729 730 730 731 732 732 733 734 735 736 737 738 739 740 740 741 742 744 744 745 747 748 750 751 751 752 753
737 736 735 735 734 732 731 731 731 731 731 730 729 729 728 727 726 725 724 723 722 722 721 720 720 719 719 718 717 716 715 714 713 713 713 713 713 712 712 712 712 713 713 713 714 714 715 716 717 718 719 720 721 722 723 724 725 725 726 727 728 728 729 730 730 731 732 733 734 735 735 736 737 738 739 740 741 742 743 745 746 748 749 750 750 752
736 736 735 735 733 732 731 730 730 730 730 728 727 727 726 725 725 724 723 722 721 720 719 718 717 717 716 716 715 714 713 712 711 710 710 710 710 710 710 710 710 711 711 711 711 712 712 713 714 715 716 717 718 719 720 721 722 723 724 725 725 726 727 728 729 730 730 731 732 733 733 734 735 736 737 738 739 740 741 743 744 746 747 748 749 750
735 734 734 733 732 730 730 729 729 729 728 727 726 725 724 723 723 722 721 720 720 719 717 716 715 715 714 714 713 713 712 711 710 709 708 708 708 709 709 709 709 709 709 709 710 710 710 711 711 712 714 715 715 717 718 718 719 720 721 722 723 724 725 726 727 728 728 729 730 731 731 732 733 735 735 737 738 739 740 741 743 744 745 746 747 748
734 733 732 731 731 730 728 727 727 727 727 726 725 724 723 722 721 720 720 718 718 717 716 715 713 712 712 712 711 711 710 709 708 708 707 707 706 707 707 707 707 707 707 708 708 708 708 709 710 710 711 712 713 714 715 715 716 717 718 719 720 721 722 723 724 725 726 727 728 729 730 731 732 733 734 735 736 737 738 740 741 742 743 744 745 746
734 733 731 730 730 729 728 725 725 725 726 725 724 723 723 721 720 719 718 716 715 715 715 713 712 710 710 710 710 709 708 707 706 706 705 705 705 705 705 705 705 705 705 705 706 706 706 707 707 708 709 710 710 711 712 713 714 715 716 717 718 719 720 721 722 723 724 725 726 727 728 729 730 731 732 734 735 735 737 738 739 740 741 742 744 745
733 732 730 729 728 728 727 725 724 724 725 724 723 722 722 721 720 718 716 714 713 713 713 712 711 710 708 707 707 707 706 705 705 704 703 703 703 703 703 703 703 703 703 704 704 704 704 705 705 706 706 707 708 708 709 710 711 712 713 714 715 716 717 718 720 720 722 723 724 725 726 727 728 729 730 731 733 734 735 736 737 738 740 741 742 743
732 731 730 728 727 726 725 725 724 723 723 723 721 720 719 718 718 717 715 713 711 711 710 710 709 708 707 706 705 705 705 704 703 702 702 701 701 701 701 701 701 701 701 701 701 702 702 702 703 703 704 704 705 705 706 707 708 709 710 711 712 713 715 716 717 718 719 721 722 723 724 725 726 727 728 730 731 732 733 734 735 736 738 739 740 742
732 730 729 728 726 725 725 724 723 722 721 721 720 718 716 715 715 715 714 711 710 709 709 708 707 706 705 705 705 704 703 702 701 701 700 700 699 699 699 699 699 699 699 699 699 699 699 700 700 700 701 702 702 703 704 705 705 707 708 709 710 711 712 713 714 715 717 718 720 721 722 723 724 725 726 727 729 730 731 732 734 735 736 737 739 740
731 730 729 727 726 725 724 723 722 721 720 719 718 717 715 715 715 714 712 710 709 708 708 707 705 704 704 704 703 703 702 701 700 699 699 698 698 698 697 697 696 696 696 697 696 696 697 697 698 698 698 699 700 700 701 702 703 704 705 706 707 708 710 711 712 713 715 716 717 719 720 721 722 723 724 725 727 728 730 730 732 733 734 735 737 738
731 730 729 727 726 725 724 723 722 721 720 719 718 717 716 715 714 714 712 710 708 707 707 705 704 702 702 701 701 701 701 700 699 698 697 696 695 696 696 695 694 694 694 694 694 694 694 695 695 695 696 696 697 698 699 700 701 702 703 704 705 706 707 708 710 711 712 713 715 716 717 719 720 721 722 723 725 726 728 729 730 731 732 733 735 736
731 730 729 727 725 724 724 723 722 721 719 719 718 717 716 715 714 713 712 710 708 707 706 705 702 700 698 698 699 699 699 698 697 696 695 694 693 694 695 694 693 692 691 691 691 691 692 692 692 693 694 694 695 695 696 697 698 699 700 701 702 703 705 706 707 708 710 711 712 714 715 716 717 719 720 721 722 724 725 727 728 730 730 732 733 735
731 730 729 727 725 724 723 722 721 720 719 718 717 716 715 714 713 712 711 710 708 706 705 703 701 698 695 695 695 696 696 696 695 694 694 692 691 691 692 691 690 690 689 689 689 689 690 690 690 690 691 692 693 693 694 695 696 697 698 699 700 701 702 703 705 706 707 708 710 711 712 714 715 716 717 719 720 722 724 725 726 728 729 730 731 733
730 730 728 726 724 723 722 721 720 719 718 717 716 715 715 714 713 712 711 710 709 707 705 703 700 698 695 693 692 692 694 694 693 693 692 690 689 688 689 689 688 688 687 687 687 687 688 688 688 688 689 690 691 691 692 693 694 695 695 696 697 698 700 701 702 703 705 706 707 709 710 711 712 714 715 716 718 720 722 723 725 726 727 729 730 731
728 728 727 725 723 722 721 720 719 718 717 716 716 715 714 712 712 712 710 710 709 707 705 703 700 698 696 693 691 691 691 691 691 690 690 688 686 686 687 687 686 685 685 685 685 685 686 686 686 686 687 687 688 690 690 691 692 692 693 694 695 696 697 698 700 700 702 703 705 706 707 709 710 711 713 714 716 718 720 721 723 724 725 727 728 730
726 725 725 724 723 721 719 719 718 718 717 716 715 714 713 711 711 710 709 708 708 707 705 703 700 698 696 694 692 691 691 690 689 688 686 685 684 684 684 684 684 683 683 683 684 684 684 684 684 684 685 685 686 687 688 689 690 690 691 692 692 693 694 696 697 698 699 700 702 703 705 706 708 709 710 712 714 716 718 719 721 722 724 725 727 728
724 723 722 723 722 720 717 716 717 716 716 715 715 713 712 711 710 709 708 708 706 705 703 702 699 697 696 695 693 691 692 691 689 686 684 683 681 680 681 681 681 681 681 681 682 682 682 682 682 682 682 683 683 684 685 686 687 688 689 689 690 691 692 693 694 695 697 698 700 701 702 704 705 707 708 710 712 714 716 717 719 720 722 724 725 726
722 720 720 720 720 718 716 715 715 715 715 715 714 712 711 710 709 708 706 706 705 703 701 700 697 696 695 694 691 690 691 691 689 687 684 681 678 677 678 678 679 679 679 679 680 680 680 680 680 680 680 680 681 681 682 683 684 685 686 687 687 688 690 691 692 693 694 696 697 699 700 701 703 705 706 708 710 712 714 715 717 719 720 722 723 725
720 718 717 718 717 716 715 714 713 713 713 713 712 711 710 709 707 705 704 704 702 700 699 697 696 695 694 692 690 689 689 690 689 688 685 681 676 674 676 676 676 676 675 676 678 678 678 678 678 679 679 678 679 679 679 680 681 682 683 684 685 686 687 688 690 691 692 694 695 696 698 699 701 702 704 706 708 710 712 713 715 716 718 720 721 722
718 716 715 715 715 714 713 712 711 711 711 710 710 708 707 706 705 703 701 700 699 697 696 694 693 691 690 689 688 687 686 687 687 687 685 680 676 674 675 674 674 673 672 674 675 676 676 676 676 676 676 676 676 676 677 677 678 679 680 681 682 683 684 685 687 688 690 691 693 694 696 697 699 700 702 704 706 708 709 711 713 714 716 717 719 721
715 715 713 713 712 711 711 710 710 709 709 708 707 706 705 704 702 701 699 698 696 695 693 691 689 687 685 685 685 683 682 684 685 685 683 679 676 674 674 673 672 671 670 671 673 674 674 674 674 674 674 674 674 674 675 675 676 677 678 678 679 680 681 683 685 686 688 689 690 692 694 695 697 699 700 702 704 705 707 709 710 712 714 716 718 720
713 712 711 710 710 709 709 708 707 707 707 706 705 704 704 703 701 700 697 696 695 694 691 689 685 683 682 682 681 679 679 680 681 681 680 677 675 673 673 672 671 670 668 669 670 671 671 671 672 672 672 671 671 672 672 673 674 675 675 676 677 678 679 680 682 684 685 687 688 690 692 693 695 696 698 700 702 704 705 707 709 711 713 715 717 719
710 709 708 707 707 706 705 705 704 704 704 703 703 702 702 701 700 697 695 693 693 693 690 687 683 680 680 679 677 676 676 677 678 677 677 676 674 672 670 671 671 669 668 667 668 668 669 669 670 670 670 669 670 670 670 670 671 672 673 674 675 675 676 678 679 681 683 685 686 688 689 691 693 695 696 698 700 702 704 705 708 710 712 714 716 718
707 706 705 704 703 702 702 701 700 700 700 699 699 699 700 700 698 694 690 690 692 692 689 685 682 680 678 676 675 674 674 675 674 674 675 675 672 669 667 669 670 668 667 666 666 666 667 666 667 667 668 667 667 667 668 668 669 670 670 672 673 673 674 675 677 679 680 682 684 685 687 689 690 692 694 695 697 700 702 704 706 708 710 713 715 717
703 702 701 700 700 699 698 697 696 696 696 695 695 695 696 696 694 690 687 688 690 689 686 683 681 680 677 675 673 672 672 671 671 672 673 673 669 665 665 668 668 666 665 665 665 665 665 664 664 665 665 665 665 665 665 666 666 667 668 669 670 672 672 673 674 676 678 680 681 683 685 686 688 690 691 693 695 697 700 702 704 707 709 711 713 715
700 699 698 697 696 696 695 694 693 692 692 691 691 691 691 691 690 687 685 686 686 685 682 680 680 679 677 675 673 670 669 668 669 670 671 670 666 663 664 666 665 663 663 665 665 664 662 661 661 661 662 662 663 663 663 664 664 665 665 666 668 670 670 671 672 674 675 677 679 681 682 684 686 688 689 691 693 695 697 700 702 705 707 709 711 713
697 696 695 694 693 693 692 691 690 689 688 688 687 687 687 687 686 684 683 683 682 681 679 678 677 676 676 675 672 668 665 666 667 669 668 666 663 661 663 663 661 660 661 662 662 660 657 658 658 659 658 659 660 660 660 661 662 662 663 664 665 667 668 669 670 672 673 675 677 678 680 682 684 685 687 688 690 692 695 697 700 702 705 707 709 711
694 693 692 691 690 690 689 688 687 686 685 684 684 684 683 683 682 681 680 680 679 677 676 675 674 673 673 672 670 666 664 664 666 666 666 664 661 659 660 660 658 657 657 658 656 654 653 653 654 655 655 656 656 657 657 658 659 660 661 662 663 664 665 667 669 670 671 673 675 676 678 680 681 683 685 686 688 690 693 695 698 700 702 705 707 709
692 690 689 688 687 686 685 685 684 683 682 681 681 680 680 679 678 677 677 676 675 674 673 672 671 670 669 668 667 664 663 663 664 664 664 662 659 658 657 657 656 655 655 654 652 650 650 649 650 652 652 652 653 654 654 655 656 658 659 660 660 661 663 665 667 668 669 671 673 674 676 677 679 681 682 684 685 688 690 693 695 697 700 702 705 707
688 687 686 685 684 683 682 681 680 680 679 678 677 677 676 675 675 674 673 673 672 671 670 670 669 668 666 665 663 661 660 660 661 662 662 660 658 656 655 655 654 653 653 652 650 649 648 647 648 649 650 650 650 651 652 653 654 655 656 657 658 659 660 662 664 665 667 669 671 673 674 676 678 679 681 682 684 686 689 691 693 695 698 700 703 705
685 684 683 682 681 680 678 678 677 676 675 674 674 673 673 672 671 670 670 669 669 668 667 667 666 665 664 663 661 659 658 658 659 660 660 659 657 655 654 652 651 651 651 651 650 648 646 646 646 647 648 649 649 650 650 651 652 653 654 655 655 656 658 659 661 663 665 667 669 670 672 674 676 678 679 680 682 684 687 689 692 694 696 699 701 703
682 680 680 679 677 676 675 674 673 672 671 671 670 670 669 669 668 667 667 666 665 665 664 664 663 662 662 661 659 657 656 656 657 658 657 657 655 654 653 650 650 650 650 649 649 648 646 645 645 645 646 647 648 648 649 650 650 652 652 653 654 655 656 657 658 660 662 665 666 668 670 672 674 676 677 679 680 683 685 688 691 693 695 698 700 702
679 677 675 675 674 673 671 670 670 669 668 668 667 666 666 665 665 664 663 663 662 662 661 660 660 659 658 658 656 655 654 655 655 655 655 654 653 652 651 650 649 649 648 647 647 647 646 645 644 645 645 645 645 646 647 648 650 650 651 652 652 653 654 655 656 658 660 662 664 666 668 670 672 674 676 678 680 683 685 688 690 693 695 697 699 701
675 673 672 671 671 670 669 667 666 666 665 665 664 663 663 662 661 661 660 659 659 658 658 657 656 655 655 654 654 653 652 652 652 652 652 651 650 650 649 648 648 647 646 645 645 645 644 643 643 643 643 644 644 645 645 647 648 649 650 650 651 652 652 653 655 656 658 660 662 665 666 669 670 673 675 677 680 682 685 688 690 692 695 697 699 700
673 671 670 669 669 668 666 665 664 663 663 662 661 660 660 659 658 657 657 656 656 655 655 654 653 652 651 651 650 650 650 650 650 650 649 648 647 647 647 646 646 645 645 644 644 644 642 641 640 640 640 642 643 644 645 646 647 648 649 650 651 651 652 652 653 655 657 659 661 663 665 667 669 671 673 675 678 680 683 686 689 691 694 696 698 700
671 670 668 667 666 665 664 663 661 660 660 659 658 657 656 656 655 654 654 653 653 652 651 651 650 650 649 648 648 647 647 646 646 646 646 645 645 644 644 643 643 643 643 643 642 642 640 639 637 636 638 640 641 643 644 645 645 646 648 649 650 651 651 652 653 654 655 657 660 661 664 665 668 670 672 674 675 678 680 683 686 689 691 694 696 699
669 667 665 664 664 663 661 660 659 658 657 656 655 654 654 653 652 651 651 650 650 649 649 648 647 646 645 645 644 644 643 643 642 642 642 642 641 641 640 640 640 641 641 641 640 639 638 636 635 634 636 637 639 640 641 643 644 645 646 647 648 649 650 651 653 654 655 657 659 660 662 665 667 669 671 673 675 676 678 681 684 687 690 692 694 696
666 664 663 662 660 660 658 657 656 655 654 653 652 651 650 650 650 649 648 648 647 646 646 645 645 644 643 642 641 640 640 639 638 638 638 638 638 638 638 638 638 639 639 639 638 637 635 634 632 632 633 635 636 638 639 641 642 643 644 645 646 649 651 652 653 653 655 656 658 660 662 664 666 668 670 672 674 676 678 680 683 685 688 690 693 694
664 662 660 659 658 657 655 654 653 652 651 650 649 648 648 647 647 646 645 645 644 644 643 643 643 642 640 639 637 637 636 635 634 634 634 634 635 635 635 635 635 636 636 637 636 635 633 632 631 630 630 632 634 635 636 639 641 642 643 644 645 647 650 651 652 653 654 656 657 659 661 663 665 667 670 672 674 676 678 680 682 685 686 689 691 694
661 660 659 657 656 655 653 652 650 650 649 648 647 646 645 645 644 644 643 642 641 641 641 640 640 639 638 636 635 634 633 632 631 631 631 631 631 631 631 632 632 633 634 634 633 633 632 631 630 630 630 630 631 632 634 636 638 640 641 642 643 644 645 647 650 652 654 655 657 659 660 662 665 667 670 672 674 675 678 680 682 684 686 688 690 692
659 658 656 655 654 653 651 650 649 648 647 645 644 643 642 642 642 641 640 640 639 638 638 637 637 636 635 633 632 631 630 630 629 629 628 628 628 628 627 628 630 630 630 630 630 630 630 630 630 630 630 630 630 630 632 634 636 638 640 641 642 643 644 645 648 650 652 654 656 658 660 662 664 666 669 671 674 675 677 679 681 684 686 688 690 691
657 655 654 653 651 650 649 648 646 645 644 643 641 640 640 639 639 638 637 636 635 635 634 634 634 633 631 630 629 629 628 627 626 625 625 625 625 625 625 626 626 627 627 627 627 628 628 628 628 629 630 630 629 629 630 631 634 636 638 639 641 642 644 646 647 648 650 652 655 657 659 661 663 665 668 670 673 675 677 679 680 682 684 686 688 690
654 653 651 650 648 647 645 645 644 643 641 640 639 638 637 636 635 635 634 633 632 631 631 630 630 629 628 627 626 626 625 624 623 622 622 622 622 622 623 623 624 624 624 624 625 625 625 625 626 627 629 629 628 628 629 630 632 634 635 637 639 641 643 645 646 648 649 651 653 656 658 660 663 665 667 670 672 675 677 679 680 681 683 685 687 689
652 650 648 647 645 644 643 641 641 640 638 637 636 635 634 634 633 632 631 630 629 628 628 627 626 625 625 624 623 623 622 621 620 619 619 619 619 620 620 620 621 621 621 621 622 622 622 623 624 625 625 625 625 626 627 629 630 631 633 635 637 639 641 643 645 647 649 650 652 654 656 658 661 663 666 669 672 674 676 678 680 681 683 684 686 689
650 648 646 645 643 641 640 639 638 636 635 634 633 632 631 630 630 629 628 627 626 625 625 624 623 622 621 620 620 620 619 618 617 617 616 616 617 617 618 618 618 619 619 619 619 620 620 621 622 622 622 622 622 623 625 626 628 630 631 634 635 637 640 642 644 646 648 650 652 653 655 657 659 661 664 667 670 673 675 677 679 681 682 684 686 688
648 646 645 643 641 639 638 636 635 634 632 631 630 629 628 627 627 626 625 624 623 622 621 620 620 619 618 617 616 616 616 616 615 614 614 614 615 615 616 616 617 617 617 617 617 618 619 619 620 620 621 620 620 620 621 624 626 628 630 632 634 636 638 640 643 645 647 649 651 653 655 657 659 661 663 665 669 671 674 676 678 680 682 684 685 688
647 645 644 642 640 638 636 635 633 632 630 629 628 626 625 625 624 623 622 621 620 619 618 617 616 615 615 614 614 614 614 613 613 612 612 612 612 613 614 615 615 615 615 616 616 617 617 618 618 618 618 618 618 618 619 620 624 627 629 631 633 635 637 640 642 644 646 648 650 652 654 656 659 660 662 664 667 670 673 675 677 679 681 683 685 687